Year,Month,Day,Hour,Minute,Value (Times are PST for windspeed in km/hr)
2016,05,08,00,00,10.30
2016,05,08,00,01,5.10
2016,05,08,00,02,5.90
2016,05,08,00,03,6.30
2016,05,08,00,04,5.70
2016,05,08,00,05,2.80
2016,05,08,00,06,1.80
2016,05,08,00,07,1.60
2016,05,08,00,08,2.00
2016,05,08,00,09,2.10
2016,05,08,00,10,4.50
2016,05,08,00,11,8.20
2016,05,08,00,12,9.90
2016,05,08,00,13,12.80
2016,05,08,00,14,11.20
2016,05,08,00,15,7.90
2016,05,08,00,16,5.60
2016,05,08,00,17,8.90
2016,05,08,00,18,10.50
2016,05,08,00,19,10.20
2016,05,08,00,20,10.60
2016,05,08,00,21,10.70
2016,05,08,00,22,7.10
2016,05,08,00,23,11.00
2016,05,08,00,24,12.20
2016,05,08,00,25,11.80
2016,05,08,00,26,12.20
2016,05,08,00,27,7.30
2016,05,08,00,28,14.30
2016,05,08,00,29,8.60
2016,05,08,00,30,9.90
2016,05,08,00,31,6.20
2016,05,08,00,32,3.70
2016,05,08,00,33,5.10
2016,05,08,00,34,14.70
2016,05,08,00,35,7.30
2016,05,08,00,36,9.10
2016,05,08,00,37,6.60
2016,05,08,00,38,6.30
2016,05,08,00,39,3.10
2016,05,08,00,40,4.70
2016,05,08,00,41,11.90
2016,05,08,00,42,7.40
2016,05,08,00,43,5.60
2016,05,08,00,44,4.10
2016,05,08,00,45,4.30
2016,05,08,00,46,9.70
2016,05,08,00,47,5.10
2016,05,08,00,48,5.70
2016,05,08,00,49,5.00
2016,05,08,00,50,4.10
2016,05,08,00,51,4.50
2016,05,08,00,52,11.00
2016,05,08,00,53,6.60
2016,05,08,00,54,5.60
2016,05,08,00,55,12.90
2016,05,08,00,56,8.30
2016,05,08,00,57,10.40
2016,05,08,00,58,12.50
2016,05,08,00,59,7.60
2016,05,08,01,00,6.20
2016,05,08,01,01,8.00
2016,05,08,01,02,5.10
2016,05,08,01,03,3.20
2016,05,08,01,04,5.50
2016,05,08,01,05,7.90
2016,05,08,01,06,6.80
2016,05,08,01,07,6.40
2016,05,08,01,08,6.70
2016,05,08,01,09,9.20
2016,05,08,01,10,6.10
2016,05,08,01,11,7.00
2016,05,08,01,12,4.80
2016,05,08,01,13,7.70
2016,05,08,01,14,8.30
2016,05,08,01,15,8.00
2016,05,08,01,16,9.80
2016,05,08,01,17,7.10
2016,05,08,01,18,12.60
2016,05,08,01,19,13.30
2016,05,08,01,20,12.60
2016,05,08,01,21,15.70
2016,05,08,01,22,9.00
2016,05,08,01,23,14.30
2016,05,08,01,24,12.20
2016,05,08,01,25,16.80
2016,05,08,01,26,14.10
2016,05,08,01,27,14.10
2016,05,08,01,28,13.40
2016,05,08,01,29,9.10
2016,05,08,01,30,16.40
2016,05,08,01,31,20.40
2016,05,08,01,32,13.90
2016,05,08,01,33,10.70
2016,05,08,01,34,10.40
2016,05,08,01,35,15.50
2016,05,08,01,36,17.50
2016,05,08,01,37,15.60
2016,05,08,01,38,12.80
2016,05,08,01,39,23.50
2016,05,08,01,40,9.30
2016,05,08,01,41,13.50
2016,05,08,01,42,18.60
2016,05,08,01,43,14.40
2016,05,08,01,44,15.20
2016,05,08,01,45,5.90
2016,05,08,01,46,9.10
2016,05,08,01,47,17.80
2016,05,08,01,48,14.00
2016,05,08,01,49,8.80
2016,05,08,01,50,7.80
2016,05,08,01,51,11.50
2016,05,08,01,52,13.20
2016,05,08,01,53,8.40
2016,05,08,01,54,12.40
2016,05,08,01,55,10.60
2016,05,08,01,56,12.50
2016,05,08,01,57,16.70
2016,05,08,01,58,19.80
2016,05,08,01,59,17.20
2016,05,08,02,00,10.20
2016,05,08,02,01,14.50
2016,05,08,02,02,13.20
2016,05,08,02,03,13.90
2016,05,08,02,04,19.30
2016,05,08,02,05,14.70
2016,05,08,02,06,4.90
2016,05,08,02,07,8.30
2016,05,08,02,08,7.90
2016,05,08,02,09,18.40
2016,05,08,02,10,13.10
2016,05,08,02,11,4.90
2016,05,08,02,12,10.20
2016,05,08,02,13,11.60
2016,05,08,02,14,17.00
2016,05,08,02,15,13.70
2016,05,08,02,16,15.30
2016,05,08,02,17,13.30
2016,05,08,02,18,5.20
2016,05,08,02,19,3.80
2016,05,08,02,20,7.00
2016,05,08,02,21,10.10
2016,05,08,02,22,13.10
2016,05,08,02,23,6.30
2016,05,08,02,24,3.40
2016,05,08,02,25,8.90
2016,05,08,02,26,8.30
2016,05,08,02,27,4.00
2016,05,08,02,28,3.50
2016,05,08,02,29,2.00
2016,05,08,02,30,9.50
2016,05,08,02,31,6.80
2016,05,08,02,32,5.40
2016,05,08,02,33,4.10
2016,05,08,02,34,4.70
2016,05,08,02,35,3.30
2016,05,08,02,36,9.70
2016,05,08,02,37,13.40
2016,05,08,02,38,6.20
2016,05,08,02,39,4.50
2016,05,08,02,40,14.00
2016,05,08,02,41,14.30
2016,05,08,02,42,10.90
2016,05,08,02,43,4.90
2016,05,08,02,44,8.30
2016,05,08,02,45,9.20
2016,05,08,02,46,13.20
2016,05,08,02,47,12.50
2016,05,08,02,48,18.40
2016,05,08,02,49,12.90
2016,05,08,02,50,20.10
2016,05,08,02,51,19.40
2016,05,08,02,52,23.60
2016,05,08,02,53,15.80
2016,05,08,02,54,15.80
2016,05,08,02,55,20.30
2016,05,08,02,56,21.90
2016,05,08,02,57,32.40
2016,05,08,02,58,28.00
2016,05,08,02,59,21.80
2016,05,08,03,00,25.70
2016,05,08,03,01,33.40
2016,05,08,03,02,19.00
2016,05,08,03,03,23.90
2016,05,08,03,04,36.30
2016,05,08,03,05,25.70
2016,05,08,03,06,31.80
2016,05,08,03,07,24.80
2016,05,08,03,08,27.60
2016,05,08,03,09,32.20
2016,05,08,03,10,41.10
2016,05,08,03,11,35.20
2016,05,08,03,12,33.60
2016,05,08,03,13,34.00
2016,05,08,03,14,47.50
2016,05,08,03,15,42.50
2016,05,08,03,16,36.30
2016,05,08,03,17,33.50
2016,05,08,03,18,47.20
2016,05,08,03,19,35.10
2016,05,08,03,20,40.10
2016,05,08,03,21,39.00
2016,05,08,03,22,44.70
2016,05,08,03,23,34.90
2016,05,08,03,24,30.80
2016,05,08,03,25,43.70
2016,05,08,03,26,38.60
2016,05,08,03,27,38.00
2016,05,08,03,28,42.90
2016,05,08,03,29,43.90
2016,05,08,03,30,44.30
2016,05,08,03,31,45.10
2016,05,08,03,32,34.50
2016,05,08,03,33,43.20
2016,05,08,03,34,37.90
2016,05,08,03,35,41.70
2016,05,08,03,36,40.20
2016,05,08,03,37,34.50
2016,05,08,03,38,32.10
2016,05,08,03,39,36.10
2016,05,08,03,40,32.80
2016,05,08,03,41,32.20
2016,05,08,03,42,37.90
2016,05,08,03,43,36.10
2016,05,08,03,44,30.30
2016,05,08,03,45,37.20
2016,05,08,03,46,42.50
2016,05,08,03,47,33.90
2016,05,08,03,48,39.60
2016,05,08,03,49,33.50
2016,05,08,03,50,36.40
2016,05,08,03,51,36.20
2016,05,08,03,52,40.80
2016,05,08,03,53,36.10
2016,05,08,03,54,31.80
2016,05,08,03,55,32.20
2016,05,08,03,56,34.50
2016,05,08,03,57,27.00
2016,05,08,03,58,36.80
2016,05,08,03,59,38.00
2016,05,08,04,00,29.90
2016,05,08,04,01,33.60
2016,05,08,04,02,41.20
2016,05,08,04,03,32.50
2016,05,08,04,04,38.80
2016,05,08,04,05,32.40
2016,05,08,04,06,32.40
2016,05,08,04,07,34.00
2016,05,08,04,08,36.60
2016,05,08,04,09,39.60
2016,05,08,04,10,27.10
2016,05,08,04,11,39.50
2016,05,08,04,12,28.30
2016,05,08,04,13,38.20
2016,05,08,04,14,36.20
2016,05,08,04,15,27.90
2016,05,08,04,16,31.20
2016,05,08,04,17,31.70
2016,05,08,04,18,36.70
2016,05,08,04,19,34.00
2016,05,08,04,20,34.40
2016,05,08,04,21,41.30
2016,05,08,04,22,44.30
2016,05,08,04,23,47.70
2016,05,08,04,24,42.20
2016,05,08,04,25,39.30
2016,05,08,04,26,40.00
2016,05,08,04,27,37.60
2016,05,08,04,28,38.20
2016,05,08,04,29,34.60
2016,05,08,04,30,42.10
2016,05,08,04,31,39.40
2016,05,08,04,32,35.80
2016,05,08,04,33,36.20
2016,05,08,04,34,46.10
2016,05,08,04,35,40.10
2016,05,08,04,36,39.40
2016,05,08,04,37,33.30
2016,05,08,04,38,32.60
2016,05,08,04,39,36.70
2016,05,08,04,40,33.50
2016,05,08,04,41,33.20
2016,05,08,04,42,40.20
2016,05,08,04,43,37.20
2016,05,08,04,44,37.70
2016,05,08,04,45,31.60
2016,05,08,04,46,29.10
2016,05,08,04,47,38.50
2016,05,08,04,48,31.70
2016,05,08,04,49,37.10
2016,05,08,04,50,36.90
2016,05,08,04,51,37.90
2016,05,08,04,52,31.60
2016,05,08,04,53,25.90
2016,05,08,04,54,25.60
2016,05,08,04,55,27.80
2016,05,08,04,56,31.70
2016,05,08,04,57,33.20
2016,05,08,04,58,25.60
2016,05,08,04,59,27.60
2016,05,08,05,00,33.90
2016,05,08,05,01,26.10
2016,05,08,05,02,21.70
2016,05,08,05,03,21.40
2016,05,08,05,04,30.90
2016,05,08,05,05,29.90
2016,05,08,05,06,22.80
2016,05,08,05,07,24.30
2016,05,08,05,08,14.90
2016,05,08,05,09,17.30
2016,05,08,05,10,16.00
2016,05,08,05,11,12.50
2016,05,08,05,12,11.60
2016,05,08,05,13,21.10
2016,05,08,05,14,19.20
2016,05,08,05,15,17.40
2016,05,08,05,16,19.90
2016,05,08,05,17,10.50
2016,05,08,05,18,15.10
2016,05,08,05,19,13.80
2016,05,08,05,20,11.00
2016,05,08,05,21,17.20
2016,05,08,05,22,21.00
2016,05,08,05,23,14.80
2016,05,08,05,24,11.30
2016,05,08,05,25,19.10
2016,05,08,05,26,20.10
2016,05,08,05,27,18.70
2016,05,08,05,28,14.50
2016,05,08,05,29,12.40
2016,05,08,05,30,21.40
2016,05,08,05,31,20.80
2016,05,08,05,32,17.30
2016,05,08,05,33,16.80
2016,05,08,05,34,27.70
2016,05,08,05,35,25.20
2016,05,08,05,36,26.40
2016,05,08,05,37,16.10
2016,05,08,05,38,19.90
2016,05,08,05,39,25.50
2016,05,08,05,40,17.40
2016,05,08,05,41,23.60
2016,05,08,05,42,19.10
2016,05,08,05,43,21.60
2016,05,08,05,44,16.70
2016,05,08,05,45,25.90
2016,05,08,05,46,19.70
2016,05,08,05,47,14.80
2016,05,08,05,48,18.90
2016,05,08,05,49,18.40
2016,05,08,05,50,17.10
2016,05,08,05,51,18.40
2016,05,08,05,52,11.20
2016,05,08,05,53,12.90
2016,05,08,05,54,14.30
2016,05,08,05,55,12.60
2016,05,08,05,56,16.00
2016,05,08,05,57,24.50
2016,05,08,05,58,16.60
2016,05,08,05,59,16.60
2016,05,08,06,00,10.70
2016,05,08,06,01,14.20
2016,05,08,06,02,19.70
2016,05,08,06,03,10.90
2016,05,08,06,04,8.20
2016,05,08,06,05,11.40
2016,05,08,06,06,10.30
2016,05,08,06,07,15.40
2016,05,08,06,08,12.70
2016,05,08,06,09,15.00
2016,05,08,06,10,17.60
2016,05,08,06,11,16.80
2016,05,08,06,12,16.80
2016,05,08,06,13,19.60
2016,05,08,06,14,13.50
2016,05,08,06,15,13.70
2016,05,08,06,16,23.60
2016,05,08,06,17,24.40
2016,05,08,06,18,28.30
2016,05,08,06,19,27.00
2016,05,08,06,20,26.00
2016,05,08,06,21,24.90
2016,05,08,06,22,22.60
2016,05,08,06,23,29.60
2016,05,08,06,24,28.40
2016,05,08,06,25,28.70
2016,05,08,06,26,29.90
2016,05,08,06,27,25.20
2016,05,08,06,28,27.30
2016,05,08,06,29,21.00
2016,05,08,06,30,18.40
2016,05,08,06,31,22.00
2016,05,08,06,32,28.40
2016,05,08,06,33,31.20
2016,05,08,06,34,27.70
2016,05,08,06,35,19.60
2016,05,08,06,36,25.80
2016,05,08,06,37,26.70
2016,05,08,06,38,17.80
2016,05,08,06,39,22.10
2016,05,08,06,40,26.00
2016,05,08,06,41,20.30
2016,05,08,06,42,20.50
2016,05,08,06,43,24.10
2016,05,08,06,44,21.80
2016,05,08,06,45,20.80
2016,05,08,06,46,19.50
2016,05,08,06,47,30.50
2016,05,08,06,48,23.00
2016,05,08,06,49,24.40
2016,05,08,06,50,20.90
2016,05,08,06,51,22.00
2016,05,08,06,52,23.00
2016,05,08,06,53,25.00
2016,05,08,06,54,28.20
2016,05,08,06,55,28.60
2016,05,08,06,56,31.80
2016,05,08,06,57,25.80
2016,05,08,06,58,25.80
2016,05,08,06,59,35.40
2016,05,08,07,00,24.90
2016,05,08,07,01,27.60
2016,05,08,07,02,26.20
2016,05,08,07,03,30.90
2016,05,08,07,04,33.70
2016,05,08,07,05,30.00
2016,05,08,07,06,29.80
2016,05,08,07,07,30.60
2016,05,08,07,08,34.80
2016,05,08,07,09,32.40
2016,05,08,07,10,34.60
2016,05,08,07,11,31.70
2016,05,08,07,12,25.80
2016,05,08,07,13,29.90
2016,05,08,07,14,30.00
2016,05,08,07,15,34.70
2016,05,08,07,16,26.10
2016,05,08,07,17,32.10
2016,05,08,07,18,33.60
2016,05,08,07,19,34.50
2016,05,08,07,20,30.80
2016,05,08,07,21,29.10
2016,05,08,07,22,30.10
2016,05,08,07,23,31.50
2016,05,08,07,24,33.50
2016,05,08,07,25,29.70
2016,05,08,07,26,23.70
2016,05,08,07,27,27.80
2016,05,08,07,28,32.30
2016,05,08,07,29,26.20
2016,05,08,07,30,24.00
2016,05,08,07,31,28.90
2016,05,08,07,32,27.20
2016,05,08,07,33,25.90
2016,05,08,07,34,26.20
2016,05,08,07,35,26.40
2016,05,08,07,36,25.50
2016,05,08,07,37,29.10
2016,05,08,07,38,30.60
2016,05,08,07,39,24.20
2016,05,08,07,40,26.20
2016,05,08,07,41,24.20
2016,05,08,07,42,28.20
2016,05,08,07,43,29.10
2016,05,08,07,44,30.10
2016,05,08,07,45,29.20
2016,05,08,07,46,22.40
2016,05,08,07,47,27.70
2016,05,08,07,48,32.70
2016,05,08,07,49,31.60
2016,05,08,07,50,32.80
2016,05,08,07,51,30.30
2016,05,08,07,52,25.90
2016,05,08,07,53,30.50
2016,05,08,07,54,33.80
2016,05,08,07,55,29.70
2016,05,08,07,56,28.60
2016,05,08,07,57,29.90
2016,05,08,07,58,26.90
2016,05,08,07,59,23.70
2016,05,08,08,00,20.00
2016,05,08,08,01,25.80
2016,05,08,08,02,26.80
2016,05,08,08,03,27.90
2016,05,08,08,04,30.00
2016,05,08,08,05,29.10
2016,05,08,08,06,30.90
2016,05,08,08,07,22.30
2016,05,08,08,08,28.80
2016,05,08,08,09,27.00
2016,05,08,08,10,25.40
2016,05,08,08,11,29.10
2016,05,08,08,12,31.40
2016,05,08,08,13,28.50
2016,05,08,08,14,27.00
2016,05,08,08,15,29.60
2016,05,08,08,16,25.10
2016,05,08,08,17,24.90
2016,05,08,08,18,21.50
2016,05,08,08,19,25.10
2016,05,08,08,20,20.30
2016,05,08,08,21,24.40
2016,05,08,08,22,24.60
2016,05,08,08,23,30.00
2016,05,08,08,24,27.50
2016,05,08,08,25,24.60
2016,05,08,08,26,26.90
2016,05,08,08,27,32.60
2016,05,08,08,28,27.60
2016,05,08,08,29,23.10
2016,05,08,08,30,23.40
2016,05,08,08,31,29.60
2016,05,08,08,32,25.60
2016,05,08,08,33,21.70
2016,05,08,08,34,24.60
2016,05,08,08,35,33.40
2016,05,08,08,36,25.30
2016,05,08,08,37,24.30
2016,05,08,08,38,22.60
2016,05,08,08,39,24.60
2016,05,08,08,40,23.80
2016,05,08,08,41,20.00
2016,05,08,08,42,25.30
2016,05,08,08,43,21.60
2016,05,08,08,44,23.20
2016,05,08,08,45,22.90
2016,05,08,08,46,25.40
2016,05,08,08,47,19.80
2016,05,08,08,48,16.00
2016,05,08,08,49,29.00
2016,05,08,08,50,23.10
2016,05,08,08,51,27.00
2016,05,08,08,52,32.10
2016,05,08,08,53,28.40
2016,05,08,08,54,27.10
2016,05,08,08,55,26.60
2016,05,08,08,56,23.20
2016,05,08,08,57,26.00
2016,05,08,08,58,22.90
2016,05,08,08,59,27.90
2016,05,08,09,00,23.90
2016,05,08,09,01,18.10
2016,05,08,09,02,18.50
2016,05,08,09,03,17.40
2016,05,08,09,04,28.60
2016,05,08,09,05,32.50
2016,05,08,09,06,30.60
2016,05,08,09,07,27.00
2016,05,08,09,08,30.60
2016,05,08,09,09,30.80
2016,05,08,09,10,32.10
2016,05,08,09,11,26.60
2016,05,08,09,12,28.50
2016,05,08,09,13,28.30
2016,05,08,09,14,17.40
2016,05,08,09,15,22.20
2016,05,08,09,16,27.60
2016,05,08,09,17,27.80
2016,05,08,09,18,21.70
2016,05,08,09,19,19.50
2016,05,08,09,20,14.50
2016,05,08,09,21,20.10
2016,05,08,09,22,21.60
2016,05,08,09,23,14.10
2016,05,08,09,24,16.20
2016,05,08,09,25,17.10
2016,05,08,09,26,13.00
2016,05,08,09,27,22.70
2016,05,08,09,28,23.90
2016,05,08,09,29,21.20
2016,05,08,09,30,28.10
2016,05,08,09,31,29.50
2016,05,08,09,32,27.20
2016,05,08,09,33,21.30
2016,05,08,09,34,20.20
2016,05,08,09,35,18.50
2016,05,08,09,36,12.10
2016,05,08,09,37,21.00
2016,05,08,09,38,17.50
2016,05,08,09,39,22.20
2016,05,08,09,40,27.00
2016,05,08,09,41,25.40
2016,05,08,09,42,24.50
2016,05,08,09,43,30.40
2016,05,08,09,44,26.60
2016,05,08,09,45,27.30
2016,05,08,09,46,22.10
2016,05,08,09,47,33.60
2016,05,08,09,48,21.80
2016,05,08,09,49,18.90
2016,05,08,09,50,19.30
2016,05,08,09,51,24.30
2016,05,08,09,52,21.30
2016,05,08,09,53,16.90
2016,05,08,09,54,22.10
2016,05,08,09,55,17.80
2016,05,08,09,56,14.50
2016,05,08,09,57,11.80
2016,05,08,09,58,16.00
2016,05,08,09,59,29.20
2016,05,08,10,00,30.40
2016,05,08,10,01,20.90
2016,05,08,10,02,28.00
2016,05,08,10,03,20.30
2016,05,08,10,04,21.90
2016,05,08,10,05,27.70
2016,05,08,10,06,20.70
2016,05,08,10,07,32.20
2016,05,08,10,08,26.20
2016,05,08,10,09,35.10
2016,05,08,10,10,26.80
2016,05,08,10,11,27.30
2016,05,08,10,12,25.40
2016,05,08,10,13,32.80
2016,05,08,10,14,41.40
2016,05,08,10,15,28.20
2016,05,08,10,16,27.00
2016,05,08,10,17,33.30
2016,05,08,10,18,30.90
2016,05,08,10,19,19.20
2016,05,08,10,20,17.60
2016,05,08,10,21,23.40
2016,05,08,10,22,19.00
2016,05,08,10,23,17.00
2016,05,08,10,24,28.70
2016,05,08,10,25,28.60
2016,05,08,10,26,27.40
2016,05,08,10,27,19.70
2016,05,08,10,28,22.30
2016,05,08,10,29,15.80
2016,05,08,10,30,5.10
2016,05,08,10,31,13.60
2016,05,08,10,32,17.60
2016,05,08,10,33,18.30
2016,05,08,10,34,16.80
2016,05,08,10,35,13.30
2016,05,08,10,36,16.60
2016,05,08,10,37,22.50
2016,05,08,10,38,26.40
2016,05,08,10,39,23.00
2016,05,08,10,40,17.10
2016,05,08,10,41,13.80
2016,05,08,10,42,12.30
2016,05,08,10,43,12.40
2016,05,08,10,44,17.50
2016,05,08,10,45,16.40
2016,05,08,10,46,16.90
2016,05,08,10,47,15.30
2016,05,08,10,48,14.90
2016,05,08,10,49,13.40
2016,05,08,10,50,8.00
2016,05,08,10,51,17.10
2016,05,08,10,52,27.60
2016,05,08,10,53,19.80
2016,05,08,10,54,19.50
2016,05,08,10,55,21.90
2016,05,08,10,56,10.70
2016,05,08,10,57,13.20
2016,05,08,10,58,20.30
2016,05,08,10,59,17.50
2016,05,08,11,00,10.00
2016,05,08,11,01,13.60
2016,05,08,11,02,14.30
2016,05,08,11,03,14.90
2016,05,08,11,04,13.50
2016,05,08,11,05,23.10
2016,05,08,11,06,20.90
2016,05,08,11,07,20.50
2016,05,08,11,08,15.10
2016,05,08,11,09,18.00
2016,05,08,11,10,17.50
2016,05,08,11,11,12.00
2016,05,08,11,12,14.70
2016,05,08,11,13,20.30
2016,05,08,11,14,22.00
2016,05,08,11,15,15.10
2016,05,08,11,16,16.60
2016,05,08,11,17,15.60
2016,05,08,11,18,12.50
2016,05,08,11,19,9.10
2016,05,08,11,20,10.50
2016,05,08,11,21,19.70
2016,05,08,11,22,12.80
2016,05,08,11,23,16.50
2016,05,08,11,24,9.90
2016,05,08,11,25,6.00
2016,05,08,11,26,11.00
2016,05,08,11,27,7.60
2016,05,08,11,28,11.30
2016,05,08,11,29,14.10
2016,05,08,11,30,7.40
2016,05,08,11,31,15.30
2016,05,08,11,32,11.50
2016,05,08,11,33,7.20
2016,05,08,11,34,10.80
2016,05,08,11,35,19.70
2016,05,08,11,36,13.40
2016,05,08,11,37,15.60
2016,05,08,11,38,14.60
2016,05,08,11,39,11.20
2016,05,08,11,40,10.50
2016,05,08,11,41,14.40
2016,05,08,11,42,9.40
2016,05,08,11,43,11.30
2016,05,08,11,44,17.30
2016,05,08,11,45,16.60
2016,05,08,11,46,13.30
2016,05,08,11,47,12.80
2016,05,08,11,48,12.20
2016,05,08,11,49,8.70
2016,05,08,11,50,11.30
2016,05,08,11,51,10.10
2016,05,08,11,52,10.50
2016,05,08,11,53,6.10
2016,05,08,11,54,6.60
2016,05,08,11,55,5.90
2016,05,08,11,56,10.20
2016,05,08,11,57,12.40
2016,05,08,11,58,16.80
2016,05,08,11,59,14.20
2016,05,08,12,00,9.10
2016,05,08,12,01,7.60
2016,05,08,12,02,12.60
2016,05,08,12,03,15.30
2016,05,08,12,04,11.70
2016,05,08,12,05,12.00
2016,05,08,12,06,11.60
2016,05,08,12,07,14.20
2016,05,08,12,08,13.00
2016,05,08,12,09,7.50
2016,05,08,12,10,10.10
2016,05,08,12,11,8.70
2016,05,08,12,12,7.90
2016,05,08,12,13,6.20
2016,05,08,12,14,16.30
2016,05,08,12,15,10.30
2016,05,08,12,16,13.70
2016,05,08,12,17,12.70
2016,05,08,12,18,10.10
2016,05,08,12,19,11.80
2016,05,08,12,20,5.80
2016,05,08,12,21,9.20
2016,05,08,12,22,12.70
2016,05,08,12,23,12.40
2016,05,08,12,24,16.60
2016,05,08,12,25,15.40
2016,05,08,12,26,7.90
2016,05,08,12,27,12.40
2016,05,08,12,28,11.60
2016,05,08,12,29,10.00
2016,05,08,12,30,11.40
2016,05,08,12,31,10.80
2016,05,08,12,32,13.90
2016,05,08,12,33,12.30
2016,05,08,12,34,17.30
2016,05,08,12,35,13.70
2016,05,08,12,36,9.80
2016,05,08,12,37,10.60
2016,05,08,12,38,8.50
2016,05,08,12,39,13.50
2016,05,08,12,40,11.00
2016,05,08,12,41,10.50
2016,05,08,12,42,10.40
2016,05,08,12,43,14.60
2016,05,08,12,44,8.90
2016,05,08,12,45,12.30
2016,05,08,12,46,7.20
2016,05,08,12,47,7.40
2016,05,08,12,48,13.00
2016,05,08,12,49,13.80
2016,05,08,12,50,9.20
2016,05,08,12,51,13.80
2016,05,08,12,52,11.20
2016,05,08,12,53,8.80
2016,05,08,12,54,5.00
2016,05,08,12,55,7.90
2016,05,08,12,56,12.20
2016,05,08,12,57,6.90
2016,05,08,12,58,6.50
2016,05,08,12,59,7.10
2016,05,08,13,00,7.10
2016,05,08,13,01,12.00
2016,05,08,13,02,12.80
2016,05,08,13,03,15.30
2016,05,08,13,04,10.10
2016,05,08,13,05,16.10
2016,05,08,13,06,11.90
2016,05,08,13,07,15.60
2016,05,08,13,08,12.40
2016,05,08,13,09,9.10
2016,05,08,13,10,12.40
2016,05,08,13,11,13.50
2016,05,08,13,12,18.30
2016,05,08,13,13,11.60
2016,05,08,13,14,13.40
2016,05,08,13,15,13.60
2016,05,08,13,16,16.40
2016,05,08,13,17,7.20
2016,05,08,13,18,12.50
2016,05,08,13,19,13.40
2016,05,08,13,20,14.20
2016,05,08,13,21,12.50
2016,05,08,13,22,13.50
2016,05,08,13,23,10.40
2016,05,08,13,24,15.70
2016,05,08,13,25,10.60
2016,05,08,13,26,12.40
2016,05,08,13,27,15.10
2016,05,08,13,28,8.20
2016,05,08,13,29,8.80
2016,05,08,13,30,13.70
2016,05,08,13,31,12.50
2016,05,08,13,32,16.10
2016,05,08,13,33,8.40
2016,05,08,13,34,10.80
2016,05,08,13,35,10.80
2016,05,08,13,36,10.10
2016,05,08,13,37,9.60
2016,05,08,13,38,10.90
2016,05,08,13,39,10.10
2016,05,08,13,40,7.90
2016,05,08,13,41,11.80
2016,05,08,13,42,11.60
2016,05,08,13,43,6.00
2016,05,08,13,44,9.90
2016,05,08,13,45,11.80
2016,05,08,13,46,14.90
2016,05,08,13,47,12.70
2016,05,08,13,48,5.80
2016,05,08,13,49,8.40
2016,05,08,13,50,11.30
2016,05,08,13,51,9.40
2016,05,08,13,52,6.80
2016,05,08,13,53,6.50
2016,05,08,13,54,8.40
2016,05,08,13,55,6.80
2016,05,08,13,56,14.00
2016,05,08,13,57,9.50
2016,05,08,13,58,11.00
2016,05,08,13,59,12.30
2016,05,08,14,00,10.90
2016,05,08,14,01,14.20
2016,05,08,14,02,8.60
2016,05,08,14,03,6.00
2016,05,08,14,04,10.20
2016,05,08,14,05,15.20
2016,05,08,14,06,11.90
2016,05,08,14,07,12.30
2016,05,08,14,08,8.50
2016,05,08,14,09,15.50
2016,05,08,14,10,14.10
2016,05,08,14,11,12.30
2016,05,08,14,12,9.30
2016,05,08,14,13,9.80
2016,05,08,14,14,13.20
2016,05,08,14,15,7.90
2016,05,08,14,16,13.50
2016,05,08,14,17,9.40
2016,05,08,14,18,11.70
2016,05,08,14,19,10.00
2016,05,08,14,20,13.20
2016,05,08,14,21,12.80
2016,05,08,14,22,14.50
2016,05,08,14,23,13.80
2016,05,08,14,24,11.30
2016,05,08,14,25,14.50
2016,05,08,14,26,13.20
2016,05,08,14,27,16.20
2016,05,08,14,28,14.10
2016,05,08,14,29,14.50
2016,05,08,14,30,16.90
2016,05,08,14,31,13.30
2016,05,08,14,32,13.30
2016,05,08,14,33,11.10
2016,05,08,14,34,14.70
2016,05,08,14,35,7.70
2016,05,08,14,36,16.40
2016,05,08,14,37,26.90
2016,05,08,14,38,24.40
2016,05,08,14,39,26.30
2016,05,08,14,40,18.20
2016,05,08,14,41,13.00
2016,05,08,14,42,24.80
2016,05,08,14,43,23.40
2016,05,08,14,44,23.20
2016,05,08,14,45,14.80
2016,05,08,14,46,14.80
2016,05,08,14,47,10.60
2016,05,08,14,48,6.90
2016,05,08,14,49,16.80
2016,05,08,14,50,6.90
2016,05,08,14,51,13.10
2016,05,08,14,52,11.00
2016,05,08,14,53,11.20
2016,05,08,14,54,14.00
2016,05,08,14,55,10.80
2016,05,08,14,56,16.20
2016,05,08,14,57,12.60
2016,05,08,14,58,5.10
2016,05,08,14,59,6.10
2016,05,08,15,00,10.30
2016,05,08,15,01,7.90
2016,05,08,15,02,16.00
2016,05,08,15,03,6.60
2016,05,08,15,04,5.80
2016,05,08,15,05,14.90
2016,05,08,15,06,22.50
2016,05,08,15,07,19.10
2016,05,08,15,08,17.10
2016,05,08,15,09,12.00
2016,05,08,15,10,15.90
2016,05,08,15,11,11.70
2016,05,08,15,12,15.10
2016,05,08,15,13,13.20
2016,05,08,15,14,19.50
2016,05,08,15,15,17.20
2016,05,08,15,16,13.90
2016,05,08,15,17,15.20
2016,05,08,15,18,14.10
2016,05,08,15,19,17.20
2016,05,08,15,20,31.40
2016,05,08,15,21,18.20
2016,05,08,15,22,16.70
2016,05,08,15,23,20.00
2016,05,08,15,24,21.70
2016,05,08,15,25,20.60
2016,05,08,15,26,25.30
2016,05,08,15,27,14.50
2016,05,08,15,28,23.90
2016,05,08,15,29,18.60
2016,05,08,15,30,24.60
2016,05,08,15,31,18.50
2016,05,08,15,32,17.40
2016,05,08,15,33,19.40
2016,05,08,15,34,12.80
2016,05,08,15,35,18.90
2016,05,08,15,36,15.20
2016,05,08,15,37,17.00
2016,05,08,15,38,19.20
2016,05,08,15,39,18.60
2016,05,08,15,40,19.10
2016,05,08,15,41,15.20
2016,05,08,15,42,16.50
2016,05,08,15,43,16.10
2016,05,08,15,44,14.00
2016,05,08,15,45,17.60
2016,05,08,15,46,12.00
2016,05,08,15,47,15.80
2016,05,08,15,48,16.30
2016,05,08,15,49,17.30
2016,05,08,15,50,21.00
2016,05,08,15,51,15.10
2016,05,08,15,52,19.50
2016,05,08,15,53,15.10
2016,05,08,15,54,13.90
2016,05,08,15,55,12.00
2016,05,08,15,56,17.20
2016,05,08,15,57,16.00
2016,05,08,15,58,16.60
2016,05,08,15,59,16.20
2016,05,08,16,00,9.70
2016,05,08,16,01,15.70
2016,05,08,16,02,8.00
2016,05,08,16,03,10.60
2016,05,08,16,04,9.30
2016,05,08,16,05,13.10
2016,05,08,16,06,13.70
2016,05,08,16,07,12.00
2016,05,08,16,08,10.10
2016,05,08,16,09,14.70
2016,05,08,16,10,16.00
2016,05,08,16,11,11.80
2016,05,08,16,12,21.00
2016,05,08,16,13,12.50
2016,05,08,16,14,13.00
2016,05,08,16,15,19.10
2016,05,08,16,16,11.20
2016,05,08,16,17,19.00
2016,05,08,16,18,13.40
2016,05,08,16,19,15.40
2016,05,08,16,20,16.80
2016,05,08,16,21,16.30
2016,05,08,16,22,12.40
2016,05,08,16,23,21.50
2016,05,08,16,24,19.60
2016,05,08,16,25,12.90
2016,05,08,16,26,17.50
2016,05,08,16,27,13.70
2016,05,08,16,28,16.30
2016,05,08,16,29,22.80
2016,05,08,16,30,13.40
2016,05,08,16,31,14.90
2016,05,08,16,32,19.20
2016,05,08,16,33,14.00
2016,05,08,16,34,11.30
2016,05,08,16,35,13.90
2016,05,08,16,36,15.30
2016,05,08,16,37,17.20
2016,05,08,16,38,18.40
2016,05,08,16,39,15.10
2016,05,08,16,40,15.20
2016,05,08,16,41,17.10
2016,05,08,16,42,16.60
2016,05,08,16,43,18.60
2016,05,08,16,44,14.70
2016,05,08,16,45,12.90
2016,05,08,16,46,14.30
2016,05,08,16,47,10.20
2016,05,08,16,48,12.60
2016,05,08,16,49,12.50
2016,05,08,16,50,10.50
2016,05,08,16,51,7.20
2016,05,08,16,52,10.30
2016,05,08,16,53,8.30
2016,05,08,16,54,10.60
2016,05,08,16,55,11.80
2016,05,08,16,56,12.20
2016,05,08,16,57,7.90
2016,05,08,16,58,11.30
2016,05,08,16,59,11.70
2016,05,08,17,00,9.70
2016,05,08,17,01,12.20
2016,05,08,17,02,5.00
2016,05,08,17,03,7.40
2016,05,08,17,04,6.80
2016,05,08,17,05,10.60
2016,05,08,17,06,8.90
2016,05,08,17,07,8.10
2016,05,08,17,08,5.80
2016,05,08,17,09,5.10
2016,05,08,17,10,8.80
2016,05,08,17,11,8.90
2016,05,08,17,12,13.10
2016,05,08,17,13,13.80
2016,05,08,17,14,11.40
2016,05,08,17,15,13.70
2016,05,08,17,16,14.60
2016,05,08,17,17,12.00
2016,05,08,17,18,7.40
2016,05,08,17,19,18.30
2016,05,08,17,20,9.80
2016,05,08,17,21,13.60
2016,05,08,17,22,15.70
2016,05,08,17,23,11.70
2016,05,08,17,24,6.80
2016,05,08,17,25,10.30
2016,05,08,17,26,11.90
2016,05,08,17,27,14.50